Tracking 30744 objects as of 23-Jun-2025
HD Live streaming from Space Station
objects crossing your sky now

STARLINK-31502

Track STARLINK-31502 now!
10-day predictions
STARLINK-31502 is classified as:


NORAD ID: 59301
Int'l Code: 2024-056F
Perigee: 451.4 km
Apogee: 454.8 km
Inclination: 43.0 °
Period: 93.5 minutes
Semi major axis: 6824 km
RCS: Unknown
Launch date: March 24, 2024
Source: United States (US)
Launch site: AIR FORCE EASTERN TEST RANGE (AFETR)
Your satellite tracking list
Your tracking list is empty




NASA's NSSDC Master Catalog

Two Line Element Set (TLE):
1 59301U 24056F   25173.50728168 -.00077518  00000-0 -19075-2 0  9994
2 59301  42.9976 253.0863 0002444 247.3009 112.7589 15.40055726 71447
Source of the keplerian elements: AFSPC